| time (UTC) | temp C | wind direction | speed KPH | gust KPH | rain 1hr cm | rain 24hr cm | rain mn cm | humidity % | barometer mb |
| 20260505070045 | 16 | 153 | 0.0 | 4.8 | 0.00 | 0.00 | 0.00 | 64 | 1008.9 |
| 20260505064541 | 17 | 162 | 1.6 | 6.4 | 0.00 | 0.00 | 0.00 | 63 | 1008.9 |
| 20260505063042 | 17 | 143 | 0.0 | 4.8 | 0.00 | 0.00 | 0.00 | 63 | 1009.1 |
| 20260505061545 | -17 | 0.0 | 0.0 | 0.00 | 0.00 | 0.00 | 1009.1 | ||
| 20260505060036 | 17 | 171 | 0.0 | 0.0 | 0.00 | 0.00 | 0.00 | 62 | 1009.1 |
| 20260505054539 | 17 | 171 | 0.0 | 0.0 | 0.00 | 0.00 | 0.00 | 62 | 1009.2 |
| 20260505053042 | 17 | 170 | 0.0 | 3.2 | 0.00 | 0.00 | 0.00 | 61 | 1009.3 |
| 20260505051535 | 17 | 142 | 0.0 | 8.0 | 0.00 | 0.00 | 0.00 | 60 | 1009.2 |
| 20260505041521 | -17 | 0.0 | 0.0 | 0.00 | 0.00 | 0.00 | 1009.0 | ||
| 20260505040018 | 14 | 268 | 0.0 | 0.0 | 0.00 | 0.00 | 0.00 | 67 | 1009.0 |
| 20260505034515 | 14 | 268 | 0.0 | 0.0 | 0.00 | 0.00 | 0.00 | 67 | 1008.9 |
| 20260505033020 | 15 | 291 | 0.0 | 1.6 | 0.00 | 0.00 | 0.00 | 66 | 1009.0 |
| 20260505031513 | 16 | 304 | 0.0 | 0.0 | 0.00 | 0.00 | 0.00 | 59 | 1008.9 |
| 20260505030015 | 17 | 307 | 0.0 | 3.2 | 0.00 | 0.00 | 0.00 | 55 | 1009.0 |
| 20260505024514 | 17 | 247 | 0.0 | 6.4 | 0.00 | 0.00 | 0.00 | 54 | 1008.8 |
| 20260505023016 | 17 | 155 | 3.2 | 9.7 | 0.00 | 0.00 | 0.00 | 55 | 1008.7 |
| 20260505021515 | 17 | 156 | 1.6 | 11.3 | 0.00 | 0.00 | 0.00 | 54 | 1008.6 |
| 20260505020014 | 17 | 142 | 0.0 | 11.3 | 0.00 | 0.00 | 0.00 | 53 | 1008.8 |
| 20260505014515 | 18 | 165 | 1.6 | 9.7 | 0.00 | 0.00 | 0.00 | 52 | 1008.7 |
| 20260505013012 | 18 | 154 | 3.2 | 9.7 | 0.00 | 0.00 | 0.00 | 51 | 1008.7 |
| 20260505011514 | 18 | 181 | 1.6 | 12.9 | 0.00 | 0.00 | 0.00 | 49 | 1008.8 |
| 20260505010010 | 18 | 173 | 1.6 | 9.7 | 0.00 | 0.00 | 0.00 | 49 | 1008.5 |
| 20260505004523 | 20 | 136 | 1.6 | 9.7 | 0.00 | 0.00 | 0.00 | 46 | 1008.3 |
| 20260505003007 | 20 | 199 | 1.6 | 6.4 | 0.00 | 0.00 | 0.00 | 45 | 1008.2 |
| 20260505001505 | 20 | 153 | 0.0 | 6.4 | 0.00 | 0.00 | 0.00 | 43 | 1008.1 |
| 20260505000006 | 20 | 140 | 1.6 | 11.3 | 0.00 | 0.00 | 0.00 | 42 | 1008.1 |
| 20260504234513 | 21 | 136 | 3.2 | 16.1 | 0.00 | 0.00 | 0.00 | 40 | 1007.9 |
| 20260504233007 | 22 | 172 | 1.6 | 9.7 | 0.00 | 0.00 | 0.00 | 40 | 1007.9 |
| 20260504231514 | 22 | 117 | 3.2 | 16.1 | 0.00 | 0.00 | 0.00 | 40 | 1007.8 |
| 20260504230003 | 22 | 150 | 3.2 | 20.9 | 0.00 | 0.00 | 0.00 | 40 | 1008.0 |
| 20260504224605 | 22 | 209 | 4.8 | 14.5 | 0.00 | 0.00 | 0.00 | 48 | 1008.0 |
| 20260504223054 | 22 | 216 | 4.8 | 16.1 | 0.00 | 0.00 | 0.00 | 39 | 1008.1 |
| 20260504221602 | 23 | 219 | 4.8 | 16.1 | 0.00 | 0.00 | 0.00 | 38 | 1008.1 |
| 20260504220053 | 23 | 155 | 3.2 | 22.5 | 0.00 | 0.00 | 0.00 | 39 | 1008.0 |
| 20260504214553 | 23 | 289 | 6.4 | 20.9 | 0.00 | 0.00 | 0.00 | 37 | 1008.1 |
| 20260504213053 | 23 | 160 | 4.8 | 20.9 | 0.00 | 0.00 | 0.00 | 37 | 1008.2 |
| 20260504211544 | -17 | 0.0 | 0.0 | 0.00 | 0.00 | 0.00 | 1008.1 | ||
| 20260504210053 | 23 | 241 | 6.4 | 14.5 | 0.00 | 0.00 | 0.00 | 36 | 1008.0 |
| 20260504204619 | 23 | 148 | 3.2 | 12.9 | 0.00 | 0.00 | 0.00 | 38 | 1008.0 |
| 20260504203040 | 23 | 256 | 8.0 | 20.9 | 0.00 | 0.00 | 0.00 | 38 | 1008.2 |
| 20260504201537 | 23 | 193 | 4.8 | 16.1 | 0.00 | 0.00 | 0.00 | 39 | 1008.4 |
| 20260504200039 | 22 | 139 | 12.9 | 25.7 | 0.00 | 0.00 | 0.00 | 38 | 1008.7 |
| 20260504194547 | 22 | 217 | 6.4 | 20.9 | 0.00 | 0.00 | 0.00 | 38 | 1008.9 |
| 20260504193036 | 22 | 276 | 8.0 | 19.3 | 0.00 | 0.00 | 0.00 | 38 | 1009.1 |
| 20260504191533 | 22 | 233 | 6.4 | 17.7 | 0.00 | 0.00 | 0.00 | 38 | 1009.4 |
| 20260504190036 | 22 | 166 | 6.4 | 17.7 | 0.00 | 0.00 | 0.00 | 39 | 1009.5 |
| 20260504184526 | 22 | 326 | 3.2 | 14.5 | 0.00 | 0.00 | 0.00 | 37 | 1009.9 |
| 20260504183027 | 22 | 333 | 4.8 | 19.3 | 0.00 | 0.00 | 0.00 | 41 | 1010.1 |
| 20260504181521 | 22 | 143 | 4.8 | 12.9 | 0.00 | 0.00 | 0.00 | 38 | 1010.4 |
| 20260504180020 | 22 | 329 | 3.2 | 12.9 | 0.00 | 0.00 | 0.00 | 39 | 1010.5 |
| 20260504174520 | 21 | 161 | 4.8 | 11.3 | 0.00 | 0.00 | 0.00 | 39 | 1010.7 |
| 20260504173017 | 21 | 222 | 4.8 | 12.9 | 0.00 | 0.00 | 0.00 | 38 | 1010.7 |
| 20260504171532 | 21 | 186 | 1.6 | 12.9 | 0.00 | 0.00 | 0.00 | 40 | 1010.9 |
| 20260504081555 | 3 | 290 | 0.0 | 0.0 | 0.00 | 0.00 | 0.00 | 80 | 1014.4 |